Location: Street
(51.1247°N, 2.7429°W)
Time: 03:03:44
(UTC+00:00)

deb Explorer IX - Pass Details

Date: 04 December 2020
Orbit: 536 x 1104 km, 38.8° (Epoch: 20 January)

Event Time Altitude Azimuth Distance (km) Brightness Sun altitude
Rises 14:30:16 0° 220° (SW) 3,846 ? 9.6°
Reaches altitude 10° 14:33:52 10° 204° (SSW) 2,827 ? 9.2°
Maximum altitude 14:38:30 19° 162° (SSE) 2,110 ? 8.8°
Drops below altitude 10° 14:42:48 10° 118° (ESE) 2,587 ? 8.4°
Sets 14:45:55 0° 102° (ESE) 3,419 ? 8.1°
